[[{"header":{"parameterUnit":"m.s-1","parameterCategory":1,"la1":30.2991,"la2":30.254,"lo1":-89.0895,"lo2":-89.0444,"dy":0.0017,"dx":0.0017,"nx":28,"ny":28,"refTime":"2025-09-09T03:00:00:Z","depth":0,"parameterNumber":2,"parameterNumberName":"U-component_of_WINDS"},"data":[0,0,0,0,0,0,0,0,0,0,0,0,0,0,0,0,0,0,0,0,0,0,0,0,0,0,0,0,0,0,0,0,0,0,0,0,0,0,0,0,0,0,0,0,0,0,0,0,0,0,0,0,0,0,0,0,0,0,-5.0128,-5.0129,0,-5.0207,-5.0208,-5.0209,-5.0065,-5.006,-5.0055,-5.0051,-5.013,-5.0137,-5.0143,0,0,0,0,0,0,0,0,0,0,0,0,0,-4.9851,-4.9857,-5.0128,-5.0129,-5.013,-5.0207,-5.0208,-5.0209,-5.0066,-5.006,-5.0054,-5.0048,-5.0128,-5.0136,-5.0144,0,0,0,0,0,0,0,0,0,0,0,0,0,-4.9955,-4.9859,-5.0128,-5.0068,-5.0063,-5.0207,-5.0208,-5.0209,-5.0067,-5.006,-5.0052,-5.0046,-5.0125,-5.0135,-5.0145,-5.035,0,0,-5.0175,-5.0179,0,0,0,0,0,0,0,0,-4.9949,-4.9965,-5.0076,-5.0072,-5.0067,-5.0119,-5.0139,-5.0257,-5.0069,-5.0065,-5.005,-5.0042,-5.0132,-5.0141,-5.0172,-5.0354,-5.0358,-5.0176,-5.0182,-5.0186,-5.0189,0,0,0,0,0,0,0,-4.9942,-4.9961,-5.0159,-5.0077,-5.0072,-5.0036,-5.0043,-5.0161,-5.0138,-5.0065,-5.0055,-5.0066,-5.0128,-5.0162,-5.0172,-5.0359,-5.0176,-5.0185,-5.0191,-5.0194,-5.0712,-5.072,0,0,0,0,0,0,-4.9943,-4.9956,-5.0157,-5.0162,-4.9989,-5.0047,-5.0055,-5.0109,-5.0137,-5.0134,-5.0072,-5.0059,-5.0149,-5.0161,-5.0175,-5.0415,-5.0186,-5.0195,-5.0201,-5.0704,-5.0714,-5.0722,0,0,0,0,0,0,-4.9937,-4.9962,-5.0153,-5.0056,-5.0078,-5.0059,-5.0122,-5.0115,-5.0148,-5.0142,-5.0137,-5.0111,-5.0144,-5.0161,-5.0307,-5.0416,-5.02,-5.0209,-5.0695,-5.0707,-5.0718,-5.0899,0,0,0,0,0,0,-4.993,-4.9961,-5.0039,-5.0059,-5.0083,-5.0286,-5.0129,-5.0122,-5.0166,-5.015,-5.0177,-5.0175,-5.0139,-5.0293,-5.0317,-5.0426,-5.0217,-5.0685,-5.0701,-5.0714,-5.0883,-5.0916,-5.0943,0,0,0,0,0,-4.9921,-5.0087,-5.0044,-5.0069,-5.0181,-5.0292,-5.0306,-5.0263,-5.0176,-5.0253,-5.0249,-5.0174,-5.0401,-5.031,-5.0335,-5.0448,-5.0678,-5.0696,-5.0713,-5.087,-5.0909,-5.0943,0,0,0,0,0,0,-5.008,-5.0088,-5.0041,-5.0219,-5.0256,-5.0268,-5.0365,-5.0306,-5.0368,-5.035,-5.0293,-5.0301,-5.0458,-5.0468,-5.0366,-5.0648,-5.0525,-5.0548,-5.0635,-5.0673,-5.0702,-5.0695,-5.0225,0,0,0,0,0,-5.0136,-5.0226,-5.0229,-5.0385,-5.0407,-5.0384,-5.043,-5.0393,-5.0429,-5.0444,-5.0451,-5.0488,-5.0567,-5.0621,-5.0694,-5.0885,-5.0888,-5.0976,-5.1006,-5.103,-5.105,-5.115,-5.1189,-5.078,-5.078,-5.078,0,0,-5.0252,-5.0268,-5.0328,-5.0418,-5.0442,-5.0536,-5.0397,-5.0503,-5.0571,-5.046,-5.0598,-5.0605,-5.0643,-5.0813,-5.0888,-5.0826,-5.1164,-5.1053,-5.1072,-5.1079,-5.1172,-5.1211,-5.1245,-5.0792,-5.079,-5.0788,0,0,-5.051,-5.0533,-5.0665,-5.0693,-5.0732,-5.0715,-5.0748,-5.0769,-5.0769,-5.0907,-5.0825,-5.0906,-5.1045,-5.1075,-5.1108,-5.138,-5.1312,-5.1406,-5.1561,-5.1659,-5.1691,-5.1719,-5.1814,-5.1849,-5.1427,-5.1427,-5.1427,0,-5.0649,-5.0788,-5.074,-5.0851,-5.0892,-5.0797,-5.093,-5.0959,-5.102,-5.105,-5.0981,-5.1152,-5.1172,-5.1346,-5.1412,-5.1444,-5.1477,-5.1401,-5.1691,-5.1719,-5.1744,-5.1833,-5.187,-5.1438,-5.1437,-5.1436,-5.1435,0,-5.0955,-5.1053,-5.1155,-5.1216,-5.127,-5.1391,-5.1361,-5.1421,-5.138,-5.1371,-5.1513,-5.1533,-5.1607,-5.1647,-5.1608,-5.1816,-5.1776,-5.17,-5.1574,-5.1795,-5.1878,-5.1912,-5.1453,-5.145,-5.1446,-5.1444,0,0,-5.1313,-5.1348,-5.1386,-5.1412,-5.145,-5.1523,-5.1641,-5.1714,-5.1765,-5.1812,-5.1907,-5.2028,-5.1957,-5.1996,-5.196,-5.2047,-5.2258,-5.196,-5.196,-5.2012,-5.2486,-5.254,-5.2581,-5.2215,-5.2221,-5.2227,-5.2481,0,-5.1568,-5.177,-5.1731,-5.1927,-5.2016,-5.1928,-5.203,-5.2063,-5.2058,-5.2132,-5.2127,-5.2212,-5.2114,-5.2136,-5.2219,-5.2215,-5.2352,-5.2197,-5.2301,-5.2306,-5.2291,-5.2624,-5.2682,-5.2922,-5.2514,-5.2519,-5.2523,0,-5.1891,-5.1949,-5.2155,-5.2178,-5.2213,-5.2306,-5.2369,-5.2442,-5.2478,-5.2468,-5.2512,-5.246,-5.2576,-5.2452,-5.261,-5.2505,-5.2546,-5.2551,-5.2559,-5.2564,-5.2425,-5.2636,-5.2997,-5.3032,-5.2574,-5.257,-5.2567,0,-5.2128,-5.2259,-5.2398,-5.2424,-5.2454,-5.2521,-5.2536,-5.2566,-5.2612,-5.2669,-5.2698,-5.2767,-5.2805,-5.2859,-5.2827,-5.274,-5.299,-5.2864,-5.2983,-5.2984,-5.3037,-5.3033,-5.3407,-5.307,-5.3069,-5.3069,-5.3068,0,-5.2414,-5.2543,-5.2504,-5.259,-5.2731,-5.2686,-5.2827,-5.2832,-5.2859,-5.2943,-5.2873,-5.2953,-5.2907,-5.2984,-5.2961,-5.3094,-5.3112,-5.3106,-5.3097,-5.3111,-5.3111,-5.3134,-5.3115,-5.3078,-5.3076,-5.3074,-5.3073,0,-5.2701,-5.2681,-5.2827,-5.2844,-5.2852,-5.2955,-5.2969,-5.3048,-5.3039,-5.3147,-5.3169,-5.3154,-5.3241,-5.3216,-5.331,-5.3294,-5.3462,-5.3434,-5.3449,-5.3441,-5.3561,-5.3549,-5.396,-5.401,-5.3644,-5.3648,-5.3651,0,-5.2883,-5.298,-5.3008,-5.306,-5.3081,-5.3165,-5.3212,-5.3172,-5.3224,-5.3273,-5.3347,-5.3428,-5.3489,-5.3633,-5.363,-5.3702,-5.3673,-5.3812,-5.3683,-5.3692,-5.3671,-5.3664,-5.3673,-5.3836,-5.3841,-5.3844,-5.3847,0,-5.3208,-5.3193,-5.3264,-5.3333,-5.3391,-5.3443,-5.3488,-5.3534,-5.3497,-5.3559,-5.3647,-5.3696,-5.3792,-5.3873,-5.3939,-5.3954,-5.3894,-5.3888,-5.3919,-5.3931,-5.3935,-5.3932,-5.3516,-5.3878,-5.3875,-5.3873,-5.3871,-5.387,-5.3445,-5.3527,-5.3559,-5.3641,-5.3671,-5.3715,-5.379,-5.379,-5.3863,-5.3938,-5.3911,-5.4012,-5.4045,-5.4127,-5.4151,-5.4229,-5.4176,-5.4221,-5.4232,-5.4243,-5.4257,-5.3926,-5.4242,-5.4241,-5.424,-5.4239,-5.4238,0,-5.3763,-5.378,-5.3856,-5.3921,-5.3986,-5.3926,-5.3973,-5.403,-5.412,-5.4157,-5.422,-5.4321,-5.4399,-5.4404,-5.4477,-5.4538,-5.4513,-5.4558,-5.4551,-5.4556,-5.4302,-5.4266,-5.4578,-5.4578,-5.4578,-5.4577,-5.4577,-5.4577,-5.3936,-5.407,-5.4059,-5.4207,-5.4223,-5.4322,-5.4353,-5.4393,-5.4422,-5.4538,-5.4603,-5.4606,-5.463,-5.4704,-5.4773,-5.4772,-5.4801,-5.4857,-5.4845,-5.4608,-5.4574,-5.4541,-5.4507,-5.4864,-5.4865,-5.5092,-5.5094,-5.5095]},{"header":{"parameterUnit":"m.s-1","parameterCategory":1,"la1":30.2991,"la2":30.254,"lo1":-89.0895,"lo2":-89.0444,"dy":0.0017,"dx":0.0017,"nx":28,"ny":28,"refTime":"2025-09-09T03:00:00:Z","depth":0,"parameterNumber":3,"parameterNumberName":"V-component_of_WINDS"},"data":[0,0,0,0,0,0,0,0,0,0,0,0,0,0,0,0,0,0,0,0,0,0,0,0,0,0,0,0,0,0,0,0,0,0,0,0,0,0,0,0,0,0,0,0,0,0,0,0,0,0,0,0,0,0,0,0,0,0,-0.9109,-0.9109,0,-0.9112,-0.9113,-0.9113,-0.9123,-0.9123,-0.9123,-0.9124,-0.9128,-0.9128,-0.9128,0,0,0,0,0,0,0,0,0,0,0,0,0,-0.9112,-0.9112,-0.9109,-0.9109,-0.9109,-0.9112,-0.9113,-0.9113,-0.9123,-0.9123,-0.9124,-0.9124,-0.9129,-0.9128,-0.9128,0,0,0,0,0,0,0,0,0,0,0,0,0,-0.9113,-0.9112,-0.9109,-0.9115,-0.9115,-0.9112,-0.9113,-0.9113,-0.9123,-0.9123,-0.9124,-0.9124,-0.9129,-0.9128,-0.9128,-0.9121,0,0,-0.9128,-0.9128,0,0,0,0,0,0,0,0,-0.9112,-0.9112,-0.9114,-0.9114,-0.9115,-0.9118,-0.9115,-0.9115,-0.9123,-0.912,-0.9124,-0.9124,-0.9125,-0.9125,-0.9125,-0.9121,-0.9121,-0.9128,-0.9128,-0.9128,-0.9128,0,0,0,0,0,0,0,-0.9112,-0.9112,-0.9111,-0.9114,-0.9115,-0.9117,-0.9118,-0.9115,-0.9121,-0.912,-0.9121,-0.9121,-0.9125,-0.9125,-0.9125,-0.9121,-0.9128,-0.9128,-0.9128,-0.9128,-0.9109,-0.9109,0,0,0,0,0,0,-0.9111,-0.9112,-0.911,-0.9111,-0.9114,-0.9117,-0.9117,-0.9116,-0.9121,-0.9121,-0.9121,-0.9122,-0.9125,-0.9125,-0.9125,-0.9115,-0.9128,-0.9128,-0.9128,-0.9109,-0.9109,-0.9108,0,0,0,0,0,0,-0.9111,-0.9111,-0.911,-0.9112,-0.9112,-0.9116,-0.9115,-0.9116,-0.9116,-0.9121,-0.9122,-0.912,-0.9125,-0.9125,-0.9121,-0.9116,-0.9128,-0.9127,-0.911,-0.9109,-0.9109,-0.9096,0,0,0,0,0,0,-0.9112,-0.9111,-0.9109,-0.9111,-0.9112,-0.9106,-0.9115,-0.9116,-0.9116,-0.9117,-0.912,-0.9121,-0.9126,-0.9121,-0.9121,-0.9116,-0.9127,-0.911,-0.911,-0.9109,-0.9097,-0.9095,-0.9094,0,0,0,0,0,-0.9112,-0.9106,-0.9108,-0.9108,-0.9108,-0.9106,-0.9106,-0.9111,-0.9115,-0.9113,-0.9115,-0.9121,-0.9116,-0.9121,-0.9121,-0.9115,-0.9111,-0.911,-0.9109,-0.9098,-0.9096,-0.9094,0,0,0,0,0,0,-0.9103,-0.9106,-0.9109,-0.9104,-0.9105,-0.9108,-0.9105,-0.9109,-0.9108,-0.9109,-0.9115,-0.9116,-0.9111,-0.9113,-0.9118,-0.9107,-0.9114,-0.9113,-0.9106,-0.9104,-0.9102,-0.9102,-0.9127,0,0,0,0,0,-0.9101,-0.9098,-0.9101,-0.9096,-0.9096,-0.91,-0.9099,-0.9103,-0.9104,-0.9104,-0.9107,-0.9108,-0.9106,-0.9105,-0.9104,-0.9097,-0.9098,-0.9093,-0.9092,-0.909,-0.9089,-0.9084,-0.9082,-0.9105,-0.9105,-0.9105,0,0,-0.9096,-0.9097,-0.9096,-0.9095,-0.9095,-0.9093,-0.91,-0.9098,-0.9096,-0.9104,-0.91,-0.9101,-0.9103,-0.9096,-0.9094,-0.9098,-0.9083,-0.9089,-0.9088,-0.9088,-0.9083,-0.9081,-0.9079,-0.9105,-0.9105,-0.9105,0,0,-0.9085,-0.9086,-0.9082,-0.9082,-0.9082,-0.9084,-0.9083,-0.9085,-0.9086,-0.9081,-0.9087,-0.9084,-0.9082,-0.9082,-0.9082,-0.9069,-0.9074,-0.9068,-0.9059,-0.9054,-0.9052,-0.9051,-0.9045,-0.9043,-0.9067,-0.9067,-0.9067,0,-0.908,-0.9075,-0.9079,-0.9075,-0.9074,-0.908,-0.9075,-0.9075,-0.9075,-0.9074,-0.9078,-0.9074,-0.9075,-0.9069,-0.9065,-0.9065,-0.9063,-0.9068,-0.9052,-0.9051,-0.9049,-0.9044,-0.9042,-0.9066,-0.9066,-0.9067,-0.9067,0,-0.9067,-0.9064,-0.906,-0.9059,-0.9057,-0.9053,-0.9056,-0.9054,-0.9056,-0.9058,-0.9052,-0.9054,-0.9052,-0.9051,-0.9054,-0.9044,-0.9046,-0.9051,-0.9059,-0.9046,-0.9042,-0.904,-0.9065,-0.9066,-0.9066,-0.9066,0,0,-0.9054,-0.9053,-0.9051,-0.905,-0.9049,-0.9047,-0.9042,-0.904,-0.9037,-0.9037,-0.9033,-0.9029,-0.9033,-0.9032,-0.9036,-0.9031,-0.9019,-0.9036,-0.9036,-0.9033,-0.9007,-0.9003,-0.9001,-0.9022,-0.9021,-0.9021,-0.9007,0,-0.9044,-0.9035,-0.9037,-0.9028,-0.9025,-0.9029,-0.9024,-0.9024,-0.9024,-0.9021,-0.9022,-0.9019,-0.9025,-0.9024,-0.902,-0.9021,-0.9014,-0.9022,-0.9018,-0.9018,-0.9018,-0.8999,-0.8995,-0.8982,-0.9005,-0.9005,-0.9004,0,-0.9031,-0.9028,-0.9019,-0.9017,-0.9015,-0.9011,-0.9008,-0.9005,-0.9004,-0.9005,-0.9003,-0.9006,-0.9001,-0.9007,-0.8999,-0.9005,-0.9003,-0.9003,-0.9003,-0.9003,-0.9011,-0.8998,-0.8978,-0.8975,-0.9002,-0.9002,-0.9002,0,-0.9021,-0.9015,-0.9008,-0.9007,-0.9005,-0.9002,-0.9001,-0.8999,-0.8997,-0.8994,-0.8993,-0.899,-0.8988,-0.8985,-0.8987,-0.8992,-0.8979,-0.8986,-0.8979,-0.8979,-0.8977,-0.8977,-0.8956,-0.8975,-0.8975,-0.8975,-0.8975,0,-0.901,-0.9004,-0.9004,-0.9,-0.8992,-0.8994,-0.8987,-0.8987,-0.8985,-0.8981,-0.8984,-0.898,-0.8983,-0.8978,-0.898,-0.8973,-0.8972,-0.8972,-0.8973,-0.8972,-0.8972,-0.8971,-0.8972,-0.8975,-0.8975,-0.8975,-0.8975,0,-0.8998,-0.8998,-0.8991,-0.8988,-0.8987,-0.8982,-0.898,-0.8976,-0.8976,-0.897,-0.8969,-0.8969,-0.8964,-0.8966,-0.8961,-0.8961,-0.8952,-0.8954,-0.8952,-0.8953,-0.8946,-0.8946,-0.8923,-0.892,-0.8942,-0.8941,-0.8941,0,-0.8991,-0.8986,-0.8983,-0.8979,-0.8978,-0.8973,-0.897,-0.8971,-0.8967,-0.8964,-0.896,-0.8955,-0.8951,-0.8943,-0.8943,-0.8938,-0.894,-0.8932,-0.8939,-0.8938,-0.8939,-0.894,-0.8939,-0.8931,-0.8931,-0.893,-0.893,0,-0.8978,-0.8978,-0.8973,-0.8968,-0.8964,-0.896,-0.8956,-0.8953,-0.8954,-0.895,-0.8944,-0.8941,-0.8935,-0.8929,-0.8925,-0.8924,-0.8927,-0.8927,-0.8926,-0.8925,-0.8924,-0.8924,-0.8948,-0.8928,-0.8929,-0.8929,-0.8929,-0.8929,-0.8969,-0.8964,-0.896,-0.8954,-0.8951,-0.8947,-0.8942,-0.8941,-0.8936,-0.893,-0.8931,-0.8924,-0.8921,-0.8915,-0.8913,-0.8908,-0.8911,-0.8908,-0.8907,-0.8907,-0.8906,-0.8925,-0.8907,-0.8907,-0.8907,-0.8907,-0.8907,0,-0.8956,-0.8953,-0.8947,-0.8941,-0.8936,-0.8938,-0.8933,-0.8929,-0.8923,-0.8919,-0.8914,-0.8907,-0.8901,-0.89,-0.8894,-0.889,-0.8891,-0.8888,-0.8889,-0.8889,-0.8904,-0.8906,-0.8888,-0.8888,-0.8888,-0.8888,-0.8888,-0.8888,-0.8948,-0.894,-0.8938,-0.8928,-0.8925,-0.8918,-0.8915,-0.8911,-0.8907,-0.8899,-0.8894,-0.8892,-0.8889,-0.8882,-0.8877,-0.8877,-0.8874,-0.8871,-0.8871,-0.8886,-0.8888,-0.889,-0.8891,-0.8871,-0.8871,-0.8857,-0.8857,-0.8857]}]]